Arvada, WY

6:41 PM MST on March 06, 2015 (GMT -0700)
RAWS ECHETA WY US | Change Station
CLOSE
Current Station
Personal Weather Station
Location: Gillette, WY
Elevation: 4396 ft
Nearby Weather Stations

Elev 4396 ft 44.47 °N, 105.84 °W | Updated 50 minutes ago

Clear
Clear
48 °F
Feels Like 42 °F
N
17
Wind Variable Wind from NW
Gusts 26.0 mph

Today
High -- | Low -- °F
--% Chance of Precip.
Yesterday
High -- | Low -- °F
Precip. -- in
6:33 AM 5:58 PM
Full, 98% visible
Pressure 30.19 in
Visibility 10.0 miles
Clouds Clear
Windchill 42 °F
Dew Point 20 °F
Humidity 32%
Rainfall in
Snow Depth Not available.
UV 0 out of 12
Pollen 1.70 out of 12
Air Quality Not available.
Flu Activity Not available.
METAR KGCC 070053Z AUTO 28007KT 10SM CLR 04/M05 A3014 RMK AO2 SLP223 T00441050 TSNO

More Conditions Fewer Conditions

Pressure 30.19 in
Visibility 10.0 miles
Clouds Clear
Windchill 42 °F
Dew Point 20 °F
Humidity 32%
Rainfall in
Snow Depth Not available.
UV 0 out of 12
Pollen 1.70 out of 12
Air Quality Not available.
Flu Activity Not available.
METAR KGCC 070053Z AUTO 28007KT 10SM CLR 04/M05 A3014 RMK AO2 SLP223 T00441050 TSNO

More Conditions Fewer Conditions

10-Day Weather Forecast

Almanac

Astronomy

Mar. 06, 2015 Rise Set
Actual Time
Civil Twilight
Nautical Twilight
Astronomical Twilight
Moon
Length of Visible Light
Length of Day
Tomorrow will be .
, % of the Moon is Illuminated

Today's Extremes

State Highs State Lows

Community

WunderPhotos

Upload Photos

1,803,494 photos uploaded!

WunderBlogs® & News

Nearby

Air Quality

  Air Quality AQ Index Pollutant
Not available.

Snow Depth

Station Depth Elevation

Earthquake Activity

City Distance Mag. Time & Date
Minimum magnitude displayed is 2.5.

Coastal Water Temperatures

Place Temperature

Nearby Weather Stations